• In Latvia
  • List of Countries
  • For 7 days
  • Water Temperature
  • Satellite Maps
  • Weather Map
  • Weather Widgets
  • user-avatar
    Login

    Hourly Weather Melbourne

    Today, 23 July, Monday

    Time Temperature Precipitation Wind Pressure Humidity
    00:00 +7°C° 0 mm 6 mps 761 mmHg 67%
    01:00 +7°C° 0 mm 6 mps 761 mmHg 67%
    02:00 +7°C° 0 mm 6 mps 761 mmHg 67%
    03:00 +7°C° 0 mm 6 mps 761 mmHg 67%
    04:00 +6°C° 0 mm 7 mps 760 mmHg 65%
    05:00 +6°C° 0 mm 7 mps 760 mmHg 64%
    06:00 +6°C° 0 mm 7 mps 759 mmHg 63%
    07:00 +6°C° 0 mm 7 mps 759 mmHg 62%
    08:00 +6°C° 0 mm 7 mps 759 mmHg 61%
    09:00 +7°C° 0 mm 8 mps 758 mmHg 59%
    10:00 +9°C° 0 mm 8 mps 758 mmHg 58%
    11:00 +9°C° 0 mm 8 mps 757 mmHg 57%
    12:00 +10°C° 0 mm 8 mps 756 mmHg 57%
    13:00 +11°C° 0 mm 9 mps 755 mmHg 56%
    14:00 +11°C° 0 mm 9 mps 755 mmHg 57%
    15:00 +11°C° 0 mm 9 mps 754 mmHg 58%
    16:00 +11°C° 0 mm 9 mps 754 mmHg 58%
    17:00 +10°C° 0.3 mm 9 mps 753 mmHg 65%
    18:00 +8°C° 0.3 mm 9 mps 753 mmHg 73%
    19:00 +7°C° 0.3 mm 9 mps 753 mmHg 80%
    20:00 +7°C° 1.3 mm 9 mps 753 mmHg 83%
    21:00 +7°C° 1.3 mm 9 mps 753 mmHg 86%
    22:00 +7°C° 1.3 mm 9 mps 753 mmHg 89%
    23:00 +7°C° 0.2 mm 8 mps 753 mmHg 88%

    Tomorrow, 24 July, Tuesday

    Time Temperature Precipitation Wind Pressure Humidity
    00:00 +9°C° 0.2 mm 7 mps 753 mmHg 88%
    01:00 +9°C° 0.2 mm 6 mps 753 mmHg 88%
    02:00 +9°C° 0 mm 5 mps 753 mmHg 87%
    03:00 +8°C° 0 mm 5 mps 753 mmHg 87%
    04:00 +8°C° 0 mm 4 mps 754 mmHg 87%
    05:00 +8°C° 0 mm 4 mps 754 mmHg 87%
    06:00 +8°C° 0 mm 5 mps 754 mmHg 88%
    07:00 +8°C° 0 mm 5 mps 755 mmHg 88%
    08:00 +9°C° 0 mm 5 mps 755 mmHg 84%
    09:00 +10°C° 0 mm 6 mps 755 mmHg 80%
    10:00 +11°C° 0 mm 7 mps 755 mmHg 76%
    11:00 +11°C° 0 mm 8 mps 754 mmHg 73%
    12:00 +12°C° 0 mm 8 mps 754 mmHg 71%
    13:00 +13°C° 0 mm 9 mps 753 mmHg 69%
    14:00 +12°C° 0.6 mm 8 mps 753 mmHg 74%
    15:00 +12°C° 0.6 mm 7 mps 754 mmHg 80%
    16:00 +11°C° 0.6 mm 7 mps 754 mmHg 86%
    17:00 +11°C° 0.5 mm 6 mps 755 mmHg 87%
    18:00 +10°C° 0.5 mm 5 mps 755 mmHg 88%
    19:00 +11°C° 0.5 mm 4 mps 756 mmHg 88%
    20:00 +10°C° 0.1 mm 4 mps 756 mmHg 88%
    21:00 +10°C° 0.1 mm 4 mps 757 mmHg 88%
    22:00 +8°C° 0.1 mm 4 mps 758 mmHg 88%
    23:00 +7°C° 0 mm 4 mps 758 mmHg 88%

    Day after tomorrow, 25 July, Wednesday

    Time Temperature Precipitation Wind Pressure Humidity
    00:00 +7°C° 0 mm 4 mps 758 mmHg 88%
    01:00 +7°C° 0 mm 4 mps 758 mmHg 87%
    02:00 +6°C° 0 mm 4 mps 758 mmHg 88%
    03:00 +6°C° 0 mm 4 mps 759 mmHg 88%
    04:00 +6°C° 0 mm 4 mps 759 mmHg 88%
    05:00 +6°C° 0 mm 4 mps 759 mmHg 88%
    06:00 +6°C° 0 mm 4 mps 760 mmHg 89%
    07:00 +6°C° 0 mm 4 mps 760 mmHg 89%
    08:00 +7°C° 0 mm 4 mps 760 mmHg 85%
    09:00 +8°C° 0 mm 4 mps 761 mmHg 80%
    10:00 +10°C° 0 mm 4 mps 761 mmHg 76%
    11:00 +12°C° 0 mm 4 mps 761 mmHg 70%
    12:00 +13°C° 0 mm 3 mps 761 mmHg 64%
    13:00 +14°C° 0 mm 3 mps 760 mmHg 57%
    14:00 +13°C° 0.1 mm 3 mps 761 mmHg 61%
    15:00 +13°C° 0.1 mm 3 mps 761 mmHg 65%
    16:00 +14°C° 0.1 mm 2 mps 761 mmHg 69%
    17:00 +13°C° 0.1 mm 2 mps 761 mmHg 74%
    18:00 +12°C° 0.1 mm 2 mps 761 mmHg 79%
    19:00 +10°C° 0.1 mm 2 mps 762 mmHg 84%
    20:00 +9°C° 0 mm 2 mps 762 mmHg 86%
    21:00 +8°C° 0 mm 2 mps 763 mmHg 89%
    22:00 +8°C° 0 mm 2 mps 763 mmHg 91%
    23:00 +7°C° 0 mm 2 mps 763 mmHg 92%

    26 July, Thursday

    Time Temperature Precipitation Wind Pressure Humidity
    00:00 +7°C° 0 mm 2 mps 763 mmHg 92%
    01:00 +7°C° 0 mm 2 mps 763 mmHg 93%
    02:00 +6°C° 0 mm 2 mps 762 mmHg 93%
    03:00 +6°C° 0 mm 2 mps 762 mmHg 93%
    04:00 +6°C° 0 mm 2 mps 762 mmHg 93%
    05:00 +6°C° 0 mm 2 mps 762 mmHg 93%
    06:00 +6°C° 0 mm 2 mps 762 mmHg 92%
    07:00 +6°C° 0 mm 2 mps 762 mmHg 92%
    08:00 +7°C° 0 mm 3 mps 762 mmHg 87%
    09:00 +9°C° 0 mm 3 mps 762 mmHg 83%
    10:00 +10°C° 0 mm 3 mps 762 mmHg 78%
    11:00 +11°C° 0 mm 3 mps 761 mmHg 73%
    12:00 +13°C° 0 mm 4 mps 761 mmHg 68%
    13:00 +14°C° 0 mm 4 mps 760 mmHg 62%
    14:00 +14°C° 0 mm 4 mps 759 mmHg 64%
    15:00 +14°C° 0 mm 4 mps 759 mmHg 66%
    16:00 +14°C° 0 mm 4 mps 759 mmHg 68%
    17:00 +12°C° 0 mm 4 mps 758 mmHg 73%
    18:00 +11°C° 0 mm 4 mps 758 mmHg 78%
    19:00 +10°C° 0 mm 4 mps 758 mmHg 83%
    20:00 +10°C° 0 mm 4 mps 758 mmHg 81%
    21:00 +10°C° 0 mm 4 mps 758 mmHg 80%
    22:00 +10°C° 0 mm 4 mps 758 mmHg 78%
    23:00 +10°C° 0 mm 4 mps 757 mmHg 77%

    27 July, Friday

    Time Temperature Precipitation Wind Pressure Humidity
    00:00 +10°C° 0 mm 4 mps 757 mmHg 76%
    01:00 +10°C° 0 mm 4 mps 756 mmHg 76%
    02:00 +10°C° 0 mm 4 mps 755 mmHg 75%
    03:00 +10°C° 0 mm 4 mps 755 mmHg 75%
    04:00 +10°C° 0 mm 4 mps 754 mmHg 74%
    05:00 +10°C° 0 mm 4 mps 753 mmHg 73%
    06:00 +10°C° 0 mm 3 mps 753 mmHg 72%
    07:00 +11°C° 0 mm 3 mps 753 mmHg 71%
    08:00 +10°C° 0.3 mm 4 mps 752 mmHg 76%
    09:00 +10°C° 0.3 mm 4 mps 752 mmHg 82%
    10:00 +8°C° 0.3 mm 4 mps 752 mmHg 87%
    11:00 +8°C° 1.1 mm 4 mps 751 mmHg 88%
    12:00 +8°C° 1.1 mm 4 mps 751 mmHg 90%
    13:00 +9°C° 1.1 mm 3 mps 750 mmHg 92%
    14:00 +9°C° 0.6 mm 3 mps 749 mmHg 92%
    15:00 +9°C° 0.6 mm 3 mps 749 mmHg 92%
    16:00 +10°C° 0.6 mm 3 mps 749 mmHg 92%
    17:00 +9°C° 0.4 mm 2 mps 749 mmHg 93%
    18:00 +9°C° 0.4 mm 2 mps 749 mmHg 94%
    19:00 +9°C° 0.4 mm 2 mps 750 mmHg 96%
    20:00 +10°C° 0.1 mm 1 mps 750 mmHg 96%
    21:00 +10°C° 0.1 mm 1 mps 750 mmHg 96%
    22:00 +9°C° 0.1 mm 1 mps 750 mmHg 97%
    23:00 +9°C° 0 mm 1 mps 750 mmHg 97%

    28 July, Saturday

    Time Temperature Precipitation Wind Pressure Humidity
    00:00 +9°C° 0 mm 1 mps 750 mmHg 97%
    01:00 +9°C° 0 mm 1 mps 750 mmHg 96%
    02:00 +9°C° 0 mm 1 mps 750 mmHg 97%
    03:00 +8°C° 0 mm 2 mps 750 mmHg 97%
    04:00 +8°C° 0 mm 2 mps 750 mmHg 97%
    05:00 +8°C° 0 mm 2 mps 751 mmHg 97%
    06:00 +8°C° 0 mm 2 mps 751 mmHg 97%
    07:00 +8°C° 0 mm 2 mps 752 mmHg 97%
    08:00 +9°C° 0 mm 2 mps 752 mmHg 95%
    09:00 +10°C° 0 mm 2 mps 752 mmHg 94%
    10:00 +11°C° 0 mm 3 mps 753 mmHg 92%
    11:00 +11°C° 0.1 mm 3 mps 753 mmHg 90%
    12:00 +12°C° 0.1 mm 3 mps 752 mmHg 87%
    13:00 +13°C° 0.1 mm 3 mps 752 mmHg 84%
    14:00 +14°C° 0.2 mm 2 mps 752 mmHg 83%
    15:00 +14°C° 0.2 mm 2 mps 752 mmHg 82%
    16:00 +14°C° 0.2 mm 2 mps 753 mmHg 82%
    17:00 +13°C° 0.1 mm 2 mps 753 mmHg 85%
    18:00 +12°C° 0.1 mm 1 mps 753 mmHg 89%
    19:00 +10°C° 0.1 mm 1 mps 754 mmHg 93%
    20:00 +9°C° 0 mm 2 mps 754 mmHg 93%
    21:00 +9°C° 0 mm 2 mps 754 mmHg 93%
    22:00 +9°C° 0 mm 2 mps 754 mmHg 93%
    23:00 +8°C° 0 mm 2 mps 754 mmHg 93%
    Show more